Tiempo cada hora Murska Sobota

Hoy, 24 Octubre, Sábado

Tiempo Temperatura Precipitaciones Viento Presión Humedad
00:00 +14°C° 0 mm 3 mps 645 mmHg 32%
01:00 +13°C° 0 mm 3 mps 645 mmHg 32%
02:00 +13°C° 0 mm 3 mps 645 mmHg 32%
03:00 +13°C° 0 mm 3 mps 645 mmHg 33%
04:00 +13°C° 0 mm 3 mps 645 mmHg 33%
05:00 +13°C° 0 mm 3 mps 645 mmHg 33%
06:00 +15°C° 0 mm 2 mps 646 mmHg 31%
07:00 +17°C° 0 mm 2 mps 647 mmHg 30%
08:00 +18°C° 0 mm 2 mps 647 mmHg 28%
09:00 +20°C° 0 mm 2 mps 648 mmHg 24%
10:00 +23°C° 0 mm 2 mps 649 mmHg 21%
11:00 +25°C° 0 mm 2 mps 649 mmHg 17%
12:00 +25°C° 0 mm 2 mps 649 mmHg 17%
13:00 +26°C° 0 mm 3 mps 648 mmHg 16%
14:00 +26°C° 0 mm 3 mps 648 mmHg 16%
15:00 +24°C° 0 mm 2 mps 647 mmHg 19%
16:00 +21°C° 0 mm 2 mps 647 mmHg 23%
17:00 +20°C° 0 mm 2 mps 646 mmHg 26%
18:00 +18°C° 0 mm 2 mps 646 mmHg 28%
19:00 +17°C° 0 mm 2 mps 646 mmHg 30%
20:00 +15°C° 0 mm 2 mps 646 mmHg 31%
21:00 +15°C° 0 mm 2 mps 646 mmHg 32%
22:00 +15°C° 0 mm 2 mps 646 mmHg 32%
23:00 +14°C° 0 mm 3 mps 647 mmHg 32%

Mañana, 25 Octubre, Domingo

Tiempo Temperatura Precipitaciones Viento Presión Humedad
00:00 +13°C° 0 mm 3 mps 647 mmHg 32%
01:00 +13°C° 0 mm 3 mps 647 mmHg 31%
02:00 +13°C° 0 mm 3 mps 646 mmHg 31%
03:00 +13°C° 0 mm 3 mps 646 mmHg 31%
04:00 +13°C° 0 mm 3 mps 647 mmHg 31%
05:00 +13°C° 0 mm 3 mps 647 mmHg 31%
06:00 +14°C° 0 mm 3 mps 647 mmHg 29%
07:00 +17°C° 0 mm 3 mps 648 mmHg 28%
08:00 +18°C° 0 mm 3 mps 649 mmHg 27%
09:00 +20°C° 0 mm 2 mps 650 mmHg 23%
10:00 +23°C° 0 mm 2 mps 651 mmHg 19%
11:00 +25°C° 0 mm 2 mps 651 mmHg 15%
12:00 +25°C° 0 mm 2 mps 651 mmHg 15%
13:00 +25°C° 0 mm 2 mps 650 mmHg 15%
14:00 +25°C° 0 mm 3 mps 650 mmHg 16%
15:00 +22°C° 0 mm 3 mps 649 mmHg 21%
16:00 +20°C° 0 mm 3 mps 648 mmHg 27%
17:00 +18°C° 0 mm 3 mps 648 mmHg 32%
18:00 +17°C° 0 mm 3 mps 648 mmHg 34%
19:00 +14°C° 0 mm 4 mps 648 mmHg 36%
20:00 +13°C° 0 mm 4 mps 648 mmHg 38%
21:00 +13°C° 0 mm 4 mps 648 mmHg 37%
22:00 +13°C° 0 mm 4 mps 648 mmHg 36%
23:00 +13°C° 0 mm 4 mps 648 mmHg 35%

Pasado mañana, 26 Octubre, Lunes

Tiempo Temperatura Precipitaciones Viento Presión Humedad
00:00 +13°C° 0 mm 4 mps 648 mmHg 34%
01:00 +12°C° 0 mm 4 mps 648 mmHg 34%
02:00 +12°C° 0 mm 4 mps 648 mmHg 33%
03:00 +12°C° 0 mm 4 mps 648 mmHg 33%
04:00 +12°C° 0 mm 4 mps 648 mmHg 32%
05:00 +12°C° 0 mm 4 mps 648 mmHg 32%
06:00 +13°C° 0 mm 3 mps 648 mmHg 30%
07:00 +16°C° 0 mm 3 mps 649 mmHg 29%
08:00 +17°C° 0 mm 3 mps 650 mmHg 27%
09:00 +20°C° 0 mm 2 mps 650 mmHg 22%
10:00 +23°C° 0 mm 2 mps 651 mmHg 18%
11:00 +26°C° 0 mm 1 mps 652 mmHg 13%
12:00 +26°C° 0 mm 1 mps 651 mmHg 13%
13:00 +26°C° 0 mm 2 mps 651 mmHg 12%
14:00 +26°C° 0 mm 3 mps 650 mmHg 12%
15:00 +24°C° 0 mm 2 mps 649 mmHg 15%
16:00 +21°C° 0 mm 2 mps 649 mmHg 18%
17:00 +19°C° 0 mm 2 mps 648 mmHg 21%
18:00 +18°C° 0 mm 2 mps 648 mmHg 23%
19:00 +16°C° 0 mm 2 mps 648 mmHg 24%
20:00 +15°C° 0 mm 2 mps 647 mmHg 25%
21:00 +15°C° 0 mm 2 mps 647 mmHg 24%
22:00 +14°C° 0 mm 3 mps 647 mmHg 23%
23:00 +13°C° 0 mm 3 mps 647 mmHg 23%

, 27 Octubre, Martes

Tiempo Temperatura Precipitaciones Viento Presión Humedad
00:00 +13°C° 0 mm 3 mps 647 mmHg 23%
01:00 +13°C° 0 mm 3 mps 647 mmHg 23%
02:00 +13°C° 0 mm 3 mps 646 mmHg 23%
03:00 +13°C° 0 mm 3 mps 646 mmHg 23%
04:00 +13°C° 0 mm 3 mps 646 mmHg 23%
05:00 +12°C° 0 mm 3 mps 646 mmHg 24%
06:00 +15°C° 0 mm 2 mps 647 mmHg 23%
07:00 +16°C° 0 mm 2 mps 648 mmHg 22%
08:00 +18°C° 0 mm 2 mps 648 mmHg 21%
09:00 +20°C° 0 mm 2 mps 649 mmHg 18%
10:00 +23°C° 0 mm 2 mps 650 mmHg 16%
11:00 +26°C° 0 mm 2 mps 650 mmHg 14%
12:00 +26°C° 0 mm 2 mps 650 mmHg 14%
13:00 +26°C° 0 mm 3 mps 649 mmHg 14%
14:00 +26°C° 0 mm 3 mps 649 mmHg 14%
15:00 +24°C° 0 mm 2 mps 648 mmHg 17%
16:00 +21°C° 0 mm 2 mps 648 mmHg 20%
17:00 +20°C° 0 mm 1 mps 647 mmHg 23%
18:00 +18°C° 0 mm 2 mps 647 mmHg 25%
19:00 +17°C° 0 mm 2 mps 647 mmHg 26%
20:00 +15°C° 0 mm 2 mps 647 mmHg 27%
21:00 +15°C° 0 mm 2 mps 647 mmHg 27%
22:00 +15°C° 0 mm 2 mps 647 mmHg 27%
23:00 +15°C° 0 mm 2 mps 647 mmHg 28%

27 Octubre, Martes

Tiempo Temperatura Precipitaciones Viento Presión Humedad
00:00 +13°C° 0 mm 3 mps 647 mmHg 23%
01:00 +13°C° 0 mm 3 mps 647 mmHg 23%
02:00 +13°C° 0 mm 3 mps 646 mmHg 23%
03:00 +13°C° 0 mm 3 mps 646 mmHg 23%
04:00 +13°C° 0 mm 3 mps 646 mmHg 23%
05:00 +12°C° 0 mm 3 mps 646 mmHg 24%
06:00 +15°C° 0 mm 2 mps 647 mmHg 23%
07:00 +16°C° 0 mm 2 mps 648 mmHg 22%
08:00 +18°C° 0 mm 2 mps 648 mmHg 21%
09:00 +20°C° 0 mm 2 mps 649 mmHg 18%
10:00 +23°C° 0 mm 2 mps 650 mmHg 16%
11:00 +26°C° 0 mm 2 mps 650 mmHg 14%
12:00 +26°C° 0 mm 2 mps 650 mmHg 14%
13:00 +26°C° 0 mm 3 mps 649 mmHg 14%
14:00 +26°C° 0 mm 3 mps 649 mmHg 14%
15:00 +24°C° 0 mm 2 mps 648 mmHg 17%
16:00 +21°C° 0 mm 2 mps 648 mmHg 20%
17:00 +20°C° 0 mm 1 mps 647 mmHg 23%
18:00 +18°C° 0 mm 2 mps 647 mmHg 25%
19:00 +17°C° 0 mm 2 mps 647 mmHg 26%
20:00 +15°C° 0 mm 2 mps 647 mmHg 27%
21:00 +15°C° 0 mm 2 mps 647 mmHg 27%
22:00 +15°C° 0 mm 2 mps 647 mmHg 27%
23:00 +15°C° 0 mm 2 mps 647 mmHg 28%

28 Octubre, Miércoles

Tiempo Temperatura Precipitaciones Viento Presión Humedad
00:00 +13°C° 0 mm 3 mps 647 mmHg 28%
01:00 +13°C° 0 mm 3 mps 647 mmHg 28%
02:00 +13°C° 0 mm 3 mps 646 mmHg 28%
03:00 +13°C° 0 mm 3 mps 646 mmHg 28%
04:00 +13°C° 0 mm 3 mps 646 mmHg 28%
05:00 +12°C° 0 mm 3 mps 646 mmHg 28%
06:00 +15°C° 0 mm 2 mps 647 mmHg 27%
07:00 +17°C° 0 mm 2 mps 647 mmHg 25%
08:00 +18°C° 0 mm 2 mps 648 mmHg 24%
09:00 +20°C° 0 mm 2 mps 649 mmHg 20%
10:00 +23°C° 0 mm 2 mps 650 mmHg 16%
11:00 +25°C° 0 mm 2 mps 650 mmHg 13%
12:00 +26°C° 0 mm 2 mps 650 mmHg 12%
13:00 +26°C° 0 mm 3 mps 650 mmHg 12%
14:00 +26°C° 0 mm 3 mps 649 mmHg 11%
15:00 +24°C° 0 mm 2 mps 649 mmHg 14%
16:00 +21°C° 0 mm 2 mps 648 mmHg 17%
17:00 +20°C° 0 mm 1 mps 647 mmHg 20%
18:00 +18°C° 0 mm 1 mps 647 mmHg 21%
19:00 +16°C° 0 mm 2 mps 647 mmHg 21%
20:00 +15°C° 0 mm 2 mps 647 mmHg 22%
21:00 +15°C° 0 mm 2 mps 647 mmHg 22%
22:00 +14°C° 0 mm 3 mps 647 mmHg 22%
23:00 +13°C° 0 mm 3 mps 648 mmHg 22%

29 Octubre, Jueves

Tiempo Temperatura Precipitaciones Viento Presión Humedad
00:00 +13°C° 0 mm 3 mps 647 mmHg 23%
01:00 +13°C° 0 mm 3 mps 647 mmHg 23%
02:00 +13°C° 0 mm 3 mps 647 mmHg 23%
03:00 +13°C° 0 mm 3 mps 647 mmHg 23%
04:00 +13°C° 0 mm 3 mps 647 mmHg 23%
05:00 +12°C° 0 mm 3 mps 647 mmHg 23%
06:00 +14°C° 0 mm 3 mps 648 mmHg 22%
07:00 +17°C° 0 mm 3 mps 648 mmHg 21%
08:00 +18°C° 0 mm 2 mps 649 mmHg 21%
09:00 +20°C° 0 mm 2 mps 650 mmHg 18%
10:00 +23°C° 0 mm 2 mps 651 mmHg 15%
11:00 +26°C° 0 mm 2 mps 651 mmHg 13%
12:00 +26°C° 0 mm 2 mps 651 mmHg 13%
13:00 +26°C° 0 mm 3 mps 650 mmHg 13%
14:00 +26°C° 0 mm 3 mps 650 mmHg 13%
15:00 +24°C° 0 mm 3 mps 649 mmHg 16%
16:00 +21°C° 0 mm 2 mps 649 mmHg 19%
17:00 +20°C° 0 mm 1 mps 648 mmHg 22%
18:00 +19°C° 0 mm 1 mps 648 mmHg 23%
19:00 +17°C° 0 mm 2 mps 648 mmHg 24%
20:00 +16°C° 0 mm 2 mps 648 mmHg 25%
21:00 +16°C° 0 mm 2 mps 648 mmHg 25%
22:00 +16°C° 0 mm 2 mps 648 mmHg 25%
23:00 +14°C° 0 mm 3 mps 648 mmHg 24%
Mostrar más

Necesitamos Su Consentimiento

Meteoprog y nuestros Proveedores de Servicios pueden almacenar y acceder a sus datos personales como cookies, identificadores de dispositivo u otras tecnologías similares de su dispositivo y procesar dichos datos para personalizar contenido y anuncios, además de ofrecer funciones de redes sociales y analizar el tráfico.

  • Almacenar y/o acceder a información en su dispositivo

    Se puede almacenar o acceder a cookies, identificadores de dispositivo u otra información de su dispositivo para los fines anteriormente indicados.

  • Anuncios y contenido personalizados, medición de anuncios y contenido, percepciones del público, y desarrollo de productos

    Los anuncios y el contenido pueden personalizarse en base a su perfil. Se pueden añadir más datos para personalizar mejor los anuncios y contenidos. Se puede medir el rendimiento de los anuncios y contenidos. Se puede obtener la percepción sobre el público que ha visto los anuncios y contenidos. Dichos datos pueden usarse para desarrollar o mejorar la experiencia del usuario, sistemas y software.

Al hacer clic en ‘Estoy De Acuerdo’ usted permitirá el uso de las cookies, identificadores de dispositivo, balizas web u otras tecnologías similares indicadas. Su configuración puede cambiarse desde el navegador de su dispositivo.

Para ciertos fines, los intereses legítimos pueden ser considerados por encima del consentimiento. Puede leer más sobre ello en nuestra Política de Privacidad y Cookies.